Temp
14 15 16 16 17 18 18 19 20 20 21 22 23 24 25 26 27 27 25 26 25 27 27 26 25 24 24 20 20 17 14 15 16 16 17 16 16 15 14 14 15 15 15 15 15
14 14 15 16 17 18 19 19 20 20 21 22 23 24 25 26 27 26 26 27 27 27 27 26 23 23 20 20 18 16 15 17 17 15 15 15 15 15 15 14 15 14 14 15 15
14 14 14 15 17 18 19 19 20 21 21 22 23 24 26 26 26 26 27 28 29 29 26 26 25 22 19 19 17 17 16 16 16 16 16 15 15 15 15 15 15 14 14 14 14
14 14 14 15 16 18 19 19 20 21 22 22 23 24 26 25 26 27 27 29 29 28 26 25 22 20 18 18 18 17 16 16 16 16 16 15 15 15 15 15 15 14 15 14 13
13 14 14 14 15 17 19 20 21 21 22 22 23 24 26 23 25 26 28 28 28 27 25 23 21 19 18 18 19 16 16 16 16 16 15 16 15 15 14 14 15 15 15 13 13
13 14 14 15 15 16 19 20 21 22 23 23 23 24 24 24 26 26 28 28 28 28 25 24 21 20 18 17 17 17 16 16 16 16 17 16 16 17 16 14 15 15 13 13 13
13 13 14 14 15 16 19 20 21 22 23 23 23 23 23 24 26 26 28 27 27 27 22 23 23 21 18 18 18 17 16 17 17 17 17 17 17 16 15 14 15 15 13 12 13
13 13 13 14 15 17 19 21 22 23 23 24 24 24 23 26 26 27 26 26 26 25 24 23 24 18 18 18 18 18 17 16 18 18 17 17 18 17 14 14 14 14 13 11 12
13 13 13 15 16 17 20 21 23 23 24 24 24 23 24 26 26 26 26 25 26 26 25 25 23 18 20 18 17 16 17 18 18 17 17 16 18 16 14 14 14 13 12 11 10
13 13 13 14 16 17 20 22 23 24 24 24 23 22 23 22 24 25 26 26 25 25 23 21 18 17 17 17 18 19 18 18 18 17 17 16 16 16 14 13 13 12 11 10 10
13 13 13 13 15 17 19 22 16 18 20 20 20 21 21 24 25 25 25 25 24 21 21 20 19 18 20 19 19 18 18 19 18 18 17 15 15 14 13 12 12 11 10 10 10
12 13 13 13 15 17 18 15 15 15 15 19 20 22 23 23 23 23 25 24 23 21 21 20 20 21 20 19 19 20 19 18 19 17 18 16 15 14 13 14 14 13 11 11 10
11 13 14 13 15 17 15 14 15 16 15 18 21 22 22 23 22 22 23 22 22 23 21 20 21 22 20 21 21 19 19 19 20 18 17 17 16 16 14 13 13 12 13 12 12
9 12 13 14 15 15 15 16 16 16 13 19 21 22 23 22 22 23 23 23 22 21 20 21 21 21 21 21 21 22 19 19 18 18 19 19 17 17 15 14 14 14 12 12 11
9 10 12 14 13 14 15 16 17 16 13 19 21 22 22 22 21 23 22 22 21 21 21 20 21 21 21 22 21 22 20 19 19 18 18 18 17 16 15 16 15 15 14 13 12
8 9 11 12 13 14 15 17 16 11 13 20 21 21 21 21 21 21 22 20 20 19 19 20 20 21 21 21 21 18 19 17 15 16 16 18 18 17 17 18 17 17 16 15 13
7 8 10 11 13 14 15 15 11 10 17 19 19 20 20 20 21 21 21 20 19 19 20 20 20 20 20 21 21 19 17 13 16 14 16 18 17 18 20 19 18 18 17 16 14
7 8 10 11 13 14 15 12 10 14 16 19 19 18 19 20 20 20 20 19 19 18 17 18 19 20 19 20 20 20 19 14 20 15 17 18 17 19 21 19 17 17 16 15 13
7 8 9 12 13 12 12 6 11 13 16 17 19 19 19 20 20 20 19 18 18 18 18 17 19 19 19 19 20 20 19 17 15 14 15 17 18 19 18 18 17 17 17 14 12
6 8 9 11 12 11 11 11 14 15 17 18 17 17 16 17 19 18 18 18 19 18 18 17 18 17 19 19 18 19 17 16 11 16 17 16 16 17 18 17 16 17 16 15 13
6 9 9 11 11 10 9 11 14 15 17 18 16 16 17 17 17 17 18 19 19 18 17 16 16 17 18 18 17 16 16 14 13 12 14 14 17 16 19 17 14 15 16 15 13
6 9 8 9 11 10 10 13 15 17 16 18 16 17 16 16 17 17 18 17 16 17 18 17 13 14 18 17 17 17 17 15 11 14 10 12 15 18 18 16 15 16 15 13 13
7 9 8 8 10 10 11 13 15 17 17 17 17 18 17 16 18 17 18 16 16 17 16 16 13 13 17 15 14 17 13 10 9 11 14 12 15 17 17 17 16 15 13 10 9
6 7 8 8 8 11 12 12 15 16 17 17 17 17 17 17 16 16 17 16 16 16 13 15 13 15 14 17 12 12 13 7 10 10 12 12 16 17 16 15 15 14 11 9 9
6 6 8 8 8 10 13 13 12 15 16 16 17 16 16 16 16 16 16 16 16 15 15 15 16 13 15 16 15 16 16 11 11 13 14 17 14 18 16 16 16 12 9 9 8
5 7 9 8 10 11 11 12 13 16 15 16 16 14 15 14 15 14 14 15 17 16 16 13 14 15 16 15 14 15 14 13 12 14 12 13 14 17 15 15 14 12 9 8 8
6 7 7 9 9 11 11 12 12 13 16 16 15 13 15 16 14 15 14 13 15 14 13 13 10 11 15 13 14 13 13 14 13 13 13 13 14 14 14 13 11 11 9 8 7
Height
838 834 832 829 826 823 820 817 815 812 809 805 802 800 797 795 796 795 794 797 795 793 793 791 792 796 798 806 811 820 860 874 868 872 868 870 871 874 875 878 879 882 884 886 888
840 836 833 829 826 823 820 817 814 812 809 804 802 798 795 794 794 794 795 792 791 791 791 791 796 798 807 813 818 831 856 860 856 861 867 868 872 872 877 881 885 885 886 887 889
841 838 834 830 825 823 820 817 813 811 809 804 801 797 794 792 793 796 792 789 788 787 789 789 792 797 816 819 829 837 853 854 859 857 860 867 871 871 876 882 882 885 886 888 890
841 838 835 830 826 823 819 816 812 809 808 804 801 796 793 791 811 794 790 787 786 785 788 789 792 809 827 834 832 846 851 850 857 858 861 865 866 873 874 876 876 880 882 885 888
841 839 834 831 827 822 819 814 811 809 806 804 801 797 794 797 798 792 788 786 785 786 789 790 798 813 832 836 835 849 854 858 859 858 864 860 867 872 876 874 876 879 881 884 888
841 838 834 832 827 821 818 813 810 808 805 803 802 798 796 808 796 791 786 785 786 786 789 791 798 807 829 839 843 851 856 863 863 863 862 865 871 867 875 877 878 880 883 885 887
840 838 835 832 826 822 816 812 809 807 804 803 803 801 799 803 797 792 788 789 789 788 794 800 801 804 825 843 847 852 862 863 863 866 868 867 873 873 872 876 878 880 883 886 888
841 838 835 832 825 821 816 811 807 805 804 802 803 802 804 799 798 795 792 793 793 794 795 803 804 812 826 835 849 857 865 877 865 866 868 869 876 872 874 878 880 881 884 886 887
840 838 835 831 826 819 815 808 806 803 803 803 803 803 806 799 799 798 795 797 797 799 802 804 808 828 834 845 864 869 879 875 871 867 870 875 875 872 874 877 881 883 885 887 889
840 839 835 830 827 820 813 807 806 803 803 804 804 810 804 807 802 801 799 799 798 800 805 812 829 845 851 855 872 869 874 872 873 868 871 879 878 873 874 878 880 882 886 887 887
840 839 837 832 828 822 813 809 811 810 807 815 816 813 810 805 803 802 801 800 801 809 825 826 844 856 843 844 847 858 863 866 867 864 869 879 879 876 875 878 880 881 881 883 882
840 839 836 833 829 825 820 823 831 832 829 812 810 810 809 807 808 803 802 806 811 829 824 837 846 840 843 846 848 851 861 867 861 865 869 875 877 872 872 867 867 872 877 876 878
839 837 836 835 832 828 828 830 832 831 832 818 810 811 809 809 814 810 806 809 818 824 830 842 839 835 843 846 849 853 862 864 859 867 869 870 873 865 863 864 864 865 865 868 870
839 837 836 835 835 832 832 831 831 828 848 826 815 810 809 811 816 810 808 812 820 831 830 835 834 837 843 849 850 852 847 853 865 870 880 868 888 861 858 861 860 859 862 864 868
840 837 836 836 836 835 834 830 829 829 878 824 816 808 809 817 818 815 811 810 826 831 832 842 838 840 845 844 844 848 845 853 861 873 875 876 887 864 857 853 847 845 847 851 856
840 838 836 836 836 835 833 830 830 865 875 826 816 817 819 818 819 816 816 813 822 833 835 838 833 835 838 840 840 849 853 864 874 882 894 872 877 865 853 840 833 832 836 839 847
840 837 836 835 836 834 833 832 866 883 832 828 825 820 823 826 824 824 827 829 839 850 847 843 841 838 836 842 842 851 866 907 897 910 897 870 879 857 832 829 829 827 828 830 837
838 835 832 833 834 835 834 847 882 846 837 819 822 825 831 826 828 829 833 841 833 838 856 858 860 844 841 842 848 853 861 898 881 905 888 869 874 849 826 825 825 823 822 825 832
835 831 830 831 832 836 840 885 856 839 825 825 824 831 832 828 829 831 838 843 836 834 849 856 854 846 844 843 844 854 864 864 886 896 894 874 855 834 830 826 826 823 823 827 829
837 833 828 828 830 835 843 846 833 822 817 818 832 831 842 837 835 838 842 833 832 831 829 846 861 853 848 846 850 850 856 879 899 896 892 880 871 859 843 837 832 828 827 828 830
838 832 825 825 830 835 848 838 825 816 813 818 827 834 834 835 837 843 839 832 828 833 832 842 856 862 851 856 862 863 867 877 882 895 893 894 867 847 839 839 839 834 829 827 828
838 832 824 825 833 833 837 829 818 812 814 814 818 823 831 833 835 838 838 835 831 831 838 840 862 874 856 855 855 856 859 868 898 888 903 894 873 834 836 837 835 831 830 828 829
835 827 824 825 829 825 828 825 817 814 814 816 816 815 821 831 834 833 832 833 831 832 838 842 866 881 863 865 865 859 867 882 891 885 882 896 871 834 836 835 833 834 834 835 836
839 833 827 825 824 819 825 826 821 809 811 811 814 815 821 825 828 837 835 833 832 833 837 836 858 858 873 855 870 875 867 891 882 895 881 877 855 839 837 838 836 835 839 840 841
838 827 819 824 827 818 817 819 822 818 810 810 814 815 821 830 831 833 834 834 833 835 837 842 852 861 857 854 857 852 856 873 876 864 868 845 858 832 836 835 832 836 841 843 844
834 824 817 816 814 814 815 815 813 812 815 813 814 818 818 828 827 837 835 835 831 836 837 846 859 854 856 856 858 858 855 857 862 858 862 858 852 833 833 833 834 836 840 844 848
831 825 826 811 814 810 808 806 810 813 809 807 810 819 821 816 819 818 824 828 827 835 845 850 865 873 862 866 862 869 851 849 850 850 848 854 843 837 836 837 839 836 841 846 852
Wind_Speed
22 23 23 21 21 21 22 22 22 22 21 20 20 19 16 11 9 8 10 12 18 9 4 6 4 11 8 5 5 4 5 4 7 8 6 5 3 2 2 6 4 2 3 6 18
22 23 24 24 23 22 22 22 22 22 21 20 20 18 14 9 6 5 20 20 12 5 1 10 5 3 5 4 4 5 4 6 5 6 6 5 3 6 4 3 4 5 9 20 19
20 22 24 25 24 24 22 22 22 21 22 20 20 17 11 6 4 4 23 13 8 4 5 10 16 6 6 4 6 4 5 6 3 8 6 7 3 4 7 3 4 8 6 9 15
20 22 24 26 26 25 23 22 22 19 20 19 20 18 9 4 3 9 19 9 4 6 12 12 6 5 6 6 3 7 5 6 5 7 5 6 6 5 3 4 8 10 14 12 15
19 21 23 26 27 26 24 22 21 19 17 18 19 17 5 5 2 19 14 6 14 14 6 6 7 6 6 5 10 9 4 6 7 10 5 9 5 7 3 7 14 14 12 13 14
20 21 22 25 28 29 25 22 20 18 14 15 17 13 3 5 11 16 9 10 13 6 5 3 7 15 10 5 6 6 12 5 6 5 4 8 3 2 4 4 8 8 7 10 14
19 22 22 25 27 30 27 23 19 15 12 11 14 9 3 3 10 15 24 19 19 26 10 14 13 6 8 13 3 6 10 7 5 4 2 3 2 3 5 6 8 7 7 8 13
20 21 22 24 26 30 29 24 15 9 11 7 8 5 1 7 5 15 24 29 25 28 30 24 22 11 6 10 6 5 5 4 2 2 2 4 4 2 7 7 7 6 6 7 9
18 21 23 22 27 31 30 23 7 6 6 6 3 3 1 7 5 12 11 16 30 29 28 25 14 6 5 9 5 6 3 2 1 5 3 4 3 4 6 7 7 6 7 7 6
18 19 23 23 26 31 27 11 4 5 4 2 3 5 6 3 6 10 5 5 6 5 6 8 7 4 3 3 4 5 4 2 4 5 4 1 6 4 7 8 9 8 8 8 8
18 18 21 23 23 27 25 5 8 7 10 2 4 2 4 10 3 7 6 2 4 8 4 3 6 7 14 3 5 7 5 5 2 3 4 6 6 9 8 6 9 9 9 10 11
15 19 18 22 20 18 14 6 4 3 5 4 4 3 3 4 4 7 10 4 4 5 4 6 2 1 3 3 7 5 3 3 3 3 6 3 10 10 9 12 14 13 11 12 6
17 16 17 20 18 9 10 9 9 2 1 6 2 2 4 3 1 4 5 2 4 2 5 6 4 3 6 4 3 3 4 5 4 4 2 1 7 4 5 5 6 8 11 13 14
17 15 14 17 6 12 2 13 10 1 5 5 2 2 1 2 2 2 3 2 5 4 5 5 0 6 4 4 4 3 7 6 8 4 2 1 5 5 3 7 11 12 12 12 11
16 15 11 8 11 5 9 13 8 0 4 4 1 1 2 4 1 2 4 4 4 3 3 4 3 5 4 4 4 2 5 6 4 4 3 1 1 7 2 6 13 18 16 16 15
15 13 8 5 6 7 13 11 2 6 5 1 1 2 3 3 3 4 4 7 4 4 5 2 1 2 2 2 2 6 6 8 5 3 2 5 5 5 4 6 4 10 17 17 16
16 13 8 4 2 7 10 4 5 5 3 3 3 3 2 2 2 3 4 3 4 4 0 3 2 3 2 4 3 6 6 3 3 3 5 0 0 9 5 7 6 8 13 16 16
18 15 8 12 11 5 4 5 4 5 5 1 3 3 4 3 1 1 2 1 0 4 3 5 2 1 3 2 5 3 5 5 5 3 4 1 5 6 2 6 7 7 7 8 12
19 11 7 12 13 4 4 3 8 7 5 8 3 4 3 1 3 2 3 3 6 6 5 5 1 3 4 2 2 4 3 3 6 3 2 4 7 7 8 8 8 7 2 7 9
16 8 7 8 9 8 2 6 5 4 4 3 8 3 6 6 4 5 5 4 3 5 2 5 4 2 2 1 4 1 4 3 3 2 4 4 5 5 8 10 10 9 8 5 5
8 3 3 10 11 4 4 6 5 6 4 5 6 4 5 6 6 4 3 2 1 2 3 4 4 3 1 1 5 2 1 5 3 3 4 1 5 5 3 6 9 7 7 7 6
5 3 1 22 3 3 4 4 3 3 3 2 5 3 7 7 4 5 6 3 3 4 6 1 5 3 1 2 1 2 4 5 4 4 1 2 6 3 2 6 6 7 6 5 2
3 3 2 4 4 2 1 4 4 3 5 6 4 3 3 6 4 4 4 0 3 3 7 6 1 2 3 4 4 2 2 4 4 3 6 4 6 2 1 3 4 7 7 5 4
3 2 0 2 3 7 8 6 6 3 3 4 4 4 4 3 3 5 4 1 3 2 4 7 3 5 6 4 4 2 4 2 5 3 4 7 6 13 7 9 7 2 3 5 5
3 4 3 4 4 4 11 7 10 7 2 3 2 5 7 4 3 3 2 2 3 2 3 3 3 2 2 2 3 3 3 7 7 6 6 8 7 15 5 6 4 4 5 6 7
3 3 2 1 7 14 6 8 7 14 5 5 5 6 5 7 8 9 6 4 4 2 3 3 2 2 2 2 2 4 8 9 7 2 7 6 15 2 5 3 4 6 6 7 7
7 10 2 3 4 10 7 10 12 6 5 4 7 6 5 5 6 1 3 4 5 7 3 3 5 3 3 3 2 6 8 6 5 5 5 5 8 4 3 6 5 3 7 8 9
Wind_Direction
11 11 8 8 4 360 357 356 355 352 348 350 346 346 344 12 92 66 41 346 344 341 357 140 70 141 92 70 68 115 79 152 168 156 151 173 137 45 36 82 69 53 98 133 134
4 7 8 6 2 360 356 353 352 350 347 348 344 341 340 6 126 43 357 348 339 344 178 153 122 105 48 55 32 70 95 154 171 150 152 120 130 127 101 82 52 88 78 126 134
355 1 3 4 2 356 354 350 349 349 344 346 342 338 338 356 99 322 347 343 331 334 163 133 126 91 70 33 11 40 123 130 1 121 126 118 83 118 128 77 169 146 136 126 134
349 352 356 359 359 354 350 348 345 346 342 344 342 338 333 351 107 340 345 340 26 128 130 120 59 60 63 51 3 94 54 121 160 131 122 114 132 74 70 137 138 147 150 149 143
340 344 351 353 354 352 347 345 342 341 341 342 341 341 340 35 334 348 352 26 112 112 104 110 68 103 97 113 62 74 93 40 97 99 98 115 94 137 129 153 143 141 135 143 146
333 337 344 347 349 348 343 341 338 334 341 341 343 343 359 67 338 4 25 109 133 106 67 67 133 117 83 54 61 87 93 80 37 59 108 105 116 72 236 159 136 141 152 153 153
330 331 337 340 346 343 342 337 333 333 339 340 344 350 39 208 358 50 86 87 105 106 92 101 131 81 128 97 47 90 89 67 27 359 98 46 84 221 158 161 152 151 147 157 169
322 328 331 336 342 342 339 334 331 343 339 343 342 355 227 353 14 69 86 88 99 94 95 89 74 89 91 125 65 76 60 93 250 213 137 32 270 200 144 160 184 170 167 171 187
321 324 330 335 338 342 338 334 338 352 360 356 352 34 285 341 22 17 60 105 98 90 86 77 71 78 41 106 68 24 147 113 196 175 117 54 282 193 169 181 208 200 184 191 204
324 318 328 334 338 343 342 333 348 18 18 343 19 46 360 317 327 340 62 112 93 78 50 50 60 76 46 70 160 160 135 193 181 201 101 171 263 246 194 192 210 203 201 201 204
331 317 323 330 341 346 352 360 13 356 35 116 269 245 301 326 360 5 357 74 57 47 78 37 100 185 184 167 116 123 134 160 234 196 129 211 265 238 211 194 217 213 199 206 214
330 321 321 326 342 354 21 62 56 292 322 303 262 272 271 338 3 335 8 77 61 112 102 40 89 158 69 92 104 116 108 201 79 129 161 168 260 239 194 218 209 202 210 213 204
336 322 314 321 337 6 50 50 346 337 184 301 260 272 280 31 159 298 16 64 95 87 110 127 179 88 161 301 18 113 165 189 146 131 77 78 291 252 244 230 196 213 212 211 203
339 328 316 321 336 346 38 347 339 317 60 279 251 296 51 95 317 303 29 100 43 159 122 112 146 146 128 260 142 249 183 133 132 107 217 104 280 282 228 245 222 222 212 211 203
332 341 319 325 320 322 324 334 340 266 36 290 237 314 30 132 326 346 356 43 125 123 93 220 129 128 139 206 203 236 123 118 105 74 81 255 40 270 1 260 230 221 214 209 203
323 334 326 304 289 298 325 326 346 44 255 258 191 133 99 32 18 329 22 50 124 74 28 88 120 74 123 84 66 167 73 49 61 70 356 240 175 275 214 217 269 221 219 210 199
321 312 314 236 267 339 334 20 47 131 283 212 188 140 116 122 81 50 357 54 137 100 213 5 10 353 72 93 46 62 59 14 357 7 230 128 145 254 285 274 238 245 221 212 196
319 311 278 242 241 319 357 56 103 236 213 307 115 91 156 153 101 86 75 208 239 97 118 145 272 175 6 118 170 150 150 155 213 196 268 319 238 252 314 315 302 270 230 192 186
325 310 273 261 227 255 80 98 201 205 187 152 73 111 184 205 136 95 145 235 219 174 144 134 212 337 31 15 86 187 187 165 105 23 55 250 297 323 352 342 356 359 150 198 191
332 297 254 252 221 130 90 221 225 209 162 126 169 151 174 188 140 149 177 217 237 190 132 188 95 14 336 45 23 99 138 73 357 153 251 281 276 240 348 330 338 345 329 273 217
311 262 238 185 156 90 198 228 237 239 182 151 171 147 184 176 150 165 219 281 159 113 81 137 105 287 69 161 187 60 38 46 109 124 183 256 260 206 258 304 311 315 321 290 228
279 235 320 150 145 196 157 201 242 237 182 182 118 120 166 169 145 186 213 239 21 162 143 84 127 156 157 67 351 188 173 143 121 244 236 144 277 226 252 301 328 324 342 341 326
262 264 14 301 163 207 69 247 249 208 194 171 153 149 179 167 150 180 168 243 33 147 156 186 11 65 352 14 347 210 94 97 105 88 199 144 258 257 278 324 345 330 349 29 76
287 240 109 190 341 145 179 220 251 226 208 150 136 111 111 115 43 174 153 16 7 86 59 95 126 159 186 197 145 178 188 122 128 137 187 226 298 287 300 306 308 312 50 80 92
248 251 220 200 216 171 190 169 200 251 231 199 74 167 151 123 96 157 139 117 63 31 66 97 153 117 211 122 197 205 163 181 190 203 179 266 205 266 292 269 290 153 156 130 117
273 261 236 255 156 197 190 202 181 213 180 234 161 180 151 151 176 193 147 188 186 65 89 27 145 93 19 14 238 284 248 217 224 246 258 276 279 284 287 303 271 239 164 140 127
248 273 249 162 176 179 192 173 197 239 265 221 167 124 149 208 167 153 121 113 159 145 123 109 126 106 239 8 23 311 246 212 199 204 172 206 235 333 324 324 335 292 145 129 119